Content
SEND FEEDBACK

Daily
Averages
Monthly
Summary
United States of America

MARKLEEVILLE, CALIFORNIA


Home > North America > United States > California
Elevation: 5585 feet     Latitude: 38 47N     Longitude: 119 49W

WEATHER
 
SELECT A DAY
Number of Records: 176,518;   Date Range: 1/1/95 - 9/30/14
 
SHARE

PRINT THIS DATA

[ ← Previous Day ]
WEATHER ALMANAC - AUGUST 18, 2014
[ Next Day → ]
[ °C ]   °F
Weather ElementAverageHighLow
Temperature62.9 °F82 °F (1:53 pm)39.9 °F (6:53 am)
Dewpoint30.6 °F39.9 °F (2:53 pm)21 °F (2:53 pm)
Humidity35.5 %63 % (7:53 pm)11 % (2:53 pm)
Barometer29.94 in30.01 in (10:53 am)29.89 in (2:53 pm)
Wind Speed3.3 mph8.1 mph (6:18 pm)
Wind Gust17.3 mph (3:53 pm)
Weather ElementAverage
Visibility10 mi
Wind DirectionENE (59.6 °)

Weather ElementTotal
Precipitation---
Heating Degree Days4.1 (Base 65)
Growing Degree Days11 (Base 50)
Averaged from 23 records on August 18, 2014
WEATHER CONDITIONS BREAKOUT
WIND DIRECTION BREAKOUT
WEATHER BY HOUR - AUGUST 18, 2014
[ °C ]   °F
Local TimeTemperatureDewpointHumidityBarometerVisibilityWind DirectionWind SpeedGust SpeedPrecipitationEventsConditions
12:53 AM51.1 °F34.0 °F52 %30.00 in10.0 miCalmClear
1:53 AM48.9 °F32.0 °F52 %29.99 in10.0 miCalmClear
2:53 AM46.0 °F32.0 °F58 %30.00 in10.0 miCalmClear
3:53 AM43.0 °F30.9 °F62 %30.01 in10.0 miSSW (200°)4.6 mphClear
4:53 AM43.0 °F28.9 °F58 %30.01 in10.0 miCalmClear
5:53 AM41.0 °F28.9 °F62 %30.00 in10.0 miSSW (200°)3.5 mphClear
6:53 AM39.9 °F28.0 °F63 %30.01 in10.0 miSouth (190°)4.6 mphClear
7:53 AM50.0 °F30.9 °F48 %30.00 in10.0 miCalmClear
8:53 AM63.0 °F28.0 °F27 %29.98 in10.0 miCalmClear
9:53 AM73.0 °F37.0 °F27 %29.94 in10.0 miVariable3.5 mphClear
10:53 AM75.0 °F39.9 °F28 %29.94 in10.0 miVariable4.6 mphClear
11:53 AM78.1 °F21.0 °F12 %29.94 in10.0 miSouth (170°)8.1 mphClear
12:53 PM79.0 °F21.9 °F12 %29.92 in10.0 miVariable5.8 mphClear
1:53 PM81.0 °F23.0 °F12 %29.91 in10.0 miVariable4.6 mphClear
2:53 PM82.0 °F23.0 °F11 %29.89 in10.0 miVariable4.6 mphClear
3:53 PM80.1 °F26.1 °F14 %29.89 in10.0 miVariable5.8 mphClear
4:53 PM79.0 °F30.0 °F17 %29.89 in10.0 miWSW (240°)8.1 mph17.3 mphClear
5:53 PM77.0 °F32.0 °F19 %29.90 in10.0 miVariable5.8 mphClear
6:53 PM73.0 °F34.0 °F24 %29.91 in10.0 miCalmClear
7:53 PM69.1 °F35.1 °F29 %29.92 in10.0 miSouth (180°)6.9 mphClear
9:53 PM62.1 °F35.1 °F37 %29.89 in10.0 miCalmScattered Clouds
10:53 PM57.9 °F36.0 °F44 %29.89 in10.0 miCalmClear
11:53 PM55.0 °F36.0 °F49 %29.90 in10.0 miSouth (190°)4.6 mphClear
Hourly data recorded from KTVL, located miles away from Markleeville, California







STORIES FROM OUR PARTNERS